Powrót do katalogu

HAIYANG 2D

AktywnyNaukaLEO
NORAD 48621·PAYLOAD·🇨🇳 China

Wystrzelony May 19, 2021 z Jiuquan Satellite Launch Center

Loading…

Następne Przeloty (najbliższe 24 godziny)

TLE

ŚwieżeSource: CelesTrak SupGP

Epoka: Sep 14, 2026, 00:00 UTC

1 48621C 21043A   26257.00000000  .00000028  00000+0  25458-4 0  2577
2 48621  65.9971  83.5827 0010719 261.3788 107.5885 13.83374503    18

Śledź HAIYANG 2D w czasie rzeczywistym z AllMySat

Download on the App Store